This is the latest recevied weather packets stored in our database for station/object DL9GRB-13. If no packets are shown the sender has not sent any weather packets the latest 10 day(s).
| Time | Temp. | Humidity | Pressure | Rain* | Wind** | Luminosity | Snow |
|---|---|---|---|---|---|---|---|
| 1778091188 | 9.44° C | 80% | 1008.9 hPa | 0 mm | - | 10 W/m² | - |
| 1778091008 | 9.44° C | 80% | 1009.2 hPa | 0 mm | - | 10 W/m² | - |
| 1778090828 | 9.44° C | 80% | 1009 hPa | 0 mm | - | 8 W/m² | - |
| 1778090648 | 9.44° C | 80% | 1009.2 hPa | 0 mm | - | 8 W/m² | - |
| 1778090468 | 9.44° C | 80% | 1009 hPa | 0 mm | - | 11 W/m² | - |
| 1778090288 | 9.44° C | 80% | 1009.1 hPa | 0 mm | - | 12 W/m² | - |
| 1778090108 | 9.44° C | 79% | 1009 hPa | 0 mm | - | 10 W/m² | - |
| 1778089928 | 9.44° C | 79% | 1009.1 hPa | 0 mm | - | 12 W/m² | - |
| 1778089748 | 9.44° C | 79% | 1008.8 hPa | 0 mm | - | 13 W/m² | - |
| 1778089568 | 9.44° C | 79% | 1009 hPa | 0 mm | - | 14 W/m² | - |
| 1778089388 | 10° C | 79% | 1009 hPa | 0 mm | - | 16 W/m² | - |
| 1778089208 | 10° C | 79% | 1009.2 hPa | 0 mm | - | 15 W/m² | - |
| 1778089028 | 10° C | 79% | 1008.9 hPa | 0 mm | - | 18 W/m² | - |
| 1778088848 | 10° C | 79% | 1008.7 hPa | 0 mm | - | 18 W/m² | - |
| 1778088668 | 10° C | 79% | 1008.9 hPa | 0 mm | - | 19 W/m² | - |
| 1778088488 | 10° C | 79% | 1008.9 hPa | 0 mm | - | 20 W/m² | - |
| 1778088308 | 10° C | 79% | 1008.7 hPa | 0 mm | - | 20 W/m² | - |
| 1778088128 | 10° C | 78% | 1008.8 hPa | 0 mm | - | 22 W/m² | - |
| 1778087948 | 10° C | 78% | 1008.6 hPa | 0 mm | - | 23 W/m² | - |
| 1778087768 | 10.56° C | 78% | 1008.7 hPa | 0 mm | - | 23 W/m² | - |
| 1778087588 | 10.56° C | 78% | 1008.5 hPa | 0 mm | - | 25 W/m² | - |
| 1778087408 | 10.56° C | 78% | 1008.4 hPa | 0 mm | - | 24 W/m² | - |
| 1778087228 | 10.56° C | 77% | 1008.4 hPa | 0 mm | - | 23 W/m² | - |
| 1778087048 | 10.56° C | 77% | 1008.6 hPa | 0 mm | - | 28 W/m² | - |
| 1778086868 | 10.56° C | 77% | 1008.4 hPa | 0 mm | - | 27 W/m² | - |
* Rain latest hour (hover to see other rain measurements)
** Current wind speed in m/s (hover to see current wind gust speed)